CAPE
24 28 23 29 28 27 26 21 8 11 13 5 5 1 5 0 0 0 0 0 0 0 0 0 0 0 0 0 0 0 0 0 0 0 0 0 0 0 0 0 0 0 0 0 0 0 0
17 21 25 27 35 24 27 23 13 0 11 15 2 4 4 0 0 0 0 0 0 0 0 0 0 0 0 0 0 0 0 0 0 0 0 0 0 0 0 0 0 0 0 0 0 0 0
2 10 27 3 15 0 0 3 0 12 0 4 11 0 0 8 0 0 0 0 1 0 0 0 0 0 0 0 0 0 0 0 0 0 0 0 0 0 0 0 0 0 0 0 0 0 0
0 0 5 7 13 1 0 0 0 0 14 0 3 12 2 2 3 0 0 0 0 0 0 0 0 0 0 0 0 0 0 0 0 0 0 0 0 0 0 0 0 0 0 0 0 0 0
21 5 8 26 21 11 18 2 0 0 0 12 0 4 11 7 0 0 0 0 0 2 1 0 0 1 0 0 0 0 0 0 0 0 0 0 0 0 0 0 0 0 0 0 0 0 0
23 25 12 14 21 22 19 14 8 1 0 4 16 0 11 14 0 0 0 0 1 1 16 1 0 1 0 0 0 0 0 0 0 0 0 0 0 0 0 0 0 0 0 0 0 0 0
25 25 10 13 16 24 19 20 18 11 0 0 3 16 10 13 27 0 0 0 27 13 1 0 0 0 0 0 0 0 0 0 0 0 0 0 0 0 0 0 0 0 0 0 0 0 0
21 21 12 16 7 16 19 22 19 13 6 0 0 4 15 21 26 20 4 2 15 1 1 5 3 0 0 0 0 0 0 0 0 0 0 0 0 0 0 0 0 0 0 0 0 0 0
19 16 16 17 25 18 26 26 11 6 0 0 0 1 13 19 20 24 6 0 0 5 0 6 2 4 0 0 0 0 0 0 0 0 0 0 0 0 0 0 0 0 0 0 0 0 0
28 4 10 14 36 13 34 21 3 3 7 4 0 1 22 17 13 6 3 0 0 2 2 0 5 13 0 0 0 0 0 0 0 0 0 0 0 0 0 0 0 0 0 0 0 0 0
38 4 6 11 14 38 21 7 16 8 0 15 1 2 20 22 13 10 0 0 0 9 1 0 2 0 0 0 0 0 0 0 0 0 0 0 0 0 0 0 0 0 0 0 0 0 0
46 9 7 12 16 24 26 9 5 0 1 10 3 4 30 31 10 0 7 11 29 35 15 0 3 5 0 0 0 0 0 0 0 0 0 0 0 0 0 0 0 0 0 0 0 0 0
35 32 15 21 21 23 24 19 8 0 1 5 0 16 36 24 0 15 17 50 27 15 0 0 10 8 0 0 0 0 0 0 0 0 0 0 0 0 0 0 0 0 0 0 0 0 0
8 26 25 22 26 31 46 25 7 0 4 0 0 26 29 5 8 38 38 30 7 4 0 1 0 5 0 0 0 0 0 0 0 0 0 0 0 0 0 0 0 0 0 0 0 0 0
11 9 17 32 22 23 30 26 7 0 0 0 3 84 81 22 73 43 53 19 1 1 0 0 2 14 3 0 0 0 0 0 0 0 0 0 0 0 0 0 0 0 0 0 0 0 0
16 15 12 18 26 18 20 15 4 2 0 0 15 98 32 71 80 9 3 0 0 0 0 0 4 15 0 0 0 0 0 0 0 0 0 0 0 0 0 0 0 0 0 0 0 0 0
12 11 11 14 22 20 18 16 8 3 0 31 23 116 8 104 28 9 1 6 0 0 0 0 0 0 0 0 0 0 0 0 0 0 0 0 0 0 0 0 0 0 0 0 0 0 0
17 14 18 22 13 19 19 14 10 2 0 45 20 0 18 5 2 0 0 0 0 0 0 0 2 0 0 0 0 0 0 0 0 0 0 0 0 0 0 0 0 0 0 0 0 0 0
18 17 13 9 11 5 12 10 17 7 13 0 2 0 0 8 0 0 0 0 1 0 0 0 0 0 0 1 0 0 0 0 0 0 0 0 0 0 0 0 0 0 0 0 0 0 0
16 14 8 15 7 15 4 11 15 8 17 2 0 0 2 2 0 0 2 0 1 0 0 1 2 1 0 3 0 0 0 0 0 0 0 0 0 0 0 0 0 0 0 0 0 0 0
9 12 15 18 18 16 9 6 8 4 9 3 0 0 1 0 0 0 4 0 4 2 2 8 9 1 3 1 2 0 0 0 0 0 0 0 0 0 0 0 0 0 0 0 0 0 0
4 8 19 19 15 9 4 8 2 5 4 11 0 0 0 2 8 4 4 1 1 2 7 6 0 4 0 2 3 0 0 0 0 0 0 0 0 0 0 0 0 0 0 0 0 0 0
14 10 17 24 15 7 3 2 2 3 5 1 1 5 2 0 7 2 1 0 0 0 10 0 0 8 4 1 10 0 2 0 0 0 0 0 0 0 0 0 0 0 0 0 0 0 0
17 15 20 25 4 1 2 0 5 3 3 1 1 11 6 2 2 0 2 3 0 0 0 1 0 3 1 5 100 85 94 43 34 0 0 0 0 0 0 0 1 0 0 0 0 0 0
12 19 18 18 2 2 3 0 3 8 27 16 19 31 0 0 2 9 6 0 1 5 17 10 0 0 79 100 35 29 33 91 103 62 0 0 0 0 0 7 14 11 0 0 0 0 0
15 8 12 15 1 2 1 3 0 4 7 16 21 29 6 0 1 0 0 0 7 2 2 10 10 0 62 27 2 8 19 27 54 30 56 24 17 4 0 21 4 0 0 0 0 0 0
13 4 11 4 4 4 1 0 0 1 1 20 12 5 0 0 0 0 0 0 9 14 1 5 31 28 37 6 1 4 4 4 19 22 8 6 9 7 1 37 16 0 0 0 1 0 0
20 9 2 4 4 4 1 0 0 0 0 1 1 0 0 0 0 0 2 0 5 15 0 2 0 0 1 0 5 0 2 6 3 5 12 4 6 4 3 35 7 0 0 0 0 0 0
4 11 1 2 2 2 1 3 0 0 0 0 0 1 0 0 1 1 5 5 5 1 3 5 0 0 0 0 0 0 0 0 0 7 0 1 0 0 0 0 0 0 0 0 2 3 0
CIN
-0 -0 -0 -0 -0 -0 -0 -0 -1 -1 -3 -10 -4 -0 -1 -0 -0 -0 -0 -0 -0 -0 -0 -2 -0 -0 -0 -0 -0 -0 -0 -0 -0 -0 -0 -0 -0 -0 -0 -0 -0 -0 -0 -0 -0 -0 -0
-0 -0 -1 -0 -0 -0 -0 -0 -0 -0 -0 -1 -11 -2 -1 -0 -0 -0 -0 -0 -0 -3 -0 -0 -0 -0 -0 -0 -0 -0 -0 -0 -0 -0 -0 -0 -0 -0 -0 -0 -0 -0 -0 -0 -0 -0 -0
-1 -3 -2 -2 -0 -0 -0 -0 -1 -1 -0 -0 -0 -0 -0 -1 -0 -0 -0 -0 -13 -0 -0 -0 -0 -0 -0 -0 -0 -0 -0 -0 -0 -0 -0 -0 -0 -0 -0 -0 -0 -0 -0 -0 -0 -0 -0
-0 -0 -0 -6 -1 -0 -0 -0 -0 -0 -0 -0 -0 -0 -3 -1 -3 -0 -0 -0 -0 -3 -0 -0 -0 -0 -0 -0 -0 -0 -0 -0 -0 -0 -0 -0 -0 -0 -0 -0 -0 -0 -0 -0 -0 -0 -0
-1 -0 -1 -0 -1 -1 -0 -1 -0 -0 -0 -0 -0 -0 -1 -4 -0 -0 -0 -0 -0 -8 -7 -0 -0 -0 -0 -0 -0 -0 -0 -0 -0 -0 -0 -0 -0 -0 -0 -0 -0 -0 -0 -0 -0 -0 -0
-0 -0 -0 -0 -0 -0 -0 -0 -1 -0 -0 -0 -0 -1 -1 -2 -0 -0 -0 -0 -0 -20 -2 -0 -0 -1 -0 -0 -0 -0 -0 -0 -0 -0 -0 -0 -0 -0 -0 -0 -0 -0 -0 -0 -0 -0 -0
-0 -0 -0 -1 -0 -1 -0 -1 -0 -1 -1 -0 -0 -0 -0 -0 -1 -0 -0 -0 -12 -16 -1 -0 -0 -0 -0 -0 -0 -0 -0 -0 -0 -0 -0 -0 -0 -0 -0 -0 -0 -0 -0 -0 -0 -0 -0
-1 -1 -1 -1 -0 -0 -0 -0 -0 -0 -0 -0 -0 -0 -0 -0 -1 -2 -2 -0 -4 -6 -0 -0 -1 -0 -0 -0 -0 -0 -0 -0 -0 -0 -0 -0 -0 -0 -0 -0 -0 -0 -0 -0 -0 -0 -0
-0 -1 -1 -0 -0 -0 -0 -0 -1 -0 -0 -0 -0 -0 -0 -0 -2 -1 -1 -0 -0 -10 -0 -0 -1 -1 -0 -0 -0 -0 -0 -0 -0 -0 -0 -0 -0 -0 -0 -0 -0 -0 -0 -0 -0 -0 -0
-4 -0 -0 -0 -0 -0 -0 -0 -2 -1 -0 -0 -0 -0 -0 -1 -1 -0 -0 -0 -0 -11 -0 -0 -0 -1 -0 -0 -0 -0 -0 -0 -0 -0 -0 -0 -0 -0 -0 -0 -0 -0 -0 -0 -0 -0 -0
-0 -0 -0 -0 -10 -0 -0 -3 -0 -0 -0 -0 -0 -0 -0 -1 -0 -0 -0 -0 -1 -5 -11 -0 -2 -0 -0 -0 -0 -0 -0 -0 -0 -0 -0 -0 -0 -0 -0 -0 -0 -0 -0 -0 -0 -0 -0
-0 -0 -0 -0 -0 -0 -0 -1 -0 -0 -6 -0 -0 -0 -0 -0 -1 -0 -2 -0 -1 -4 -43 -0 -2 -1 -0 -0 -0 -0 -0 -0 -0 -0 -0 -0 -0 -0 -0 -0 -0 -0 -0 -0 -0 -0 -0
-0 -0 -0 -0 -0 -0 -0 -0 -0 -0 -1 -1 -0 -0 -0 -0 -0 -1 -1 -0 -0 -1 -1 -0 -0 -2 -0 -0 -0 -0 -0 -0 -0 -0 -0 -0 -0 -0 -0 -0 -0 -0 -0 -0 -0 -0 -0
-0 -0 -0 -0 -0 -0 -0 -0 -0 -0 -0 -0 -0 -0 -0 -0 -0 -2 -2 -0 -1 -0 -0 -5 -0 -2 -0 -0 -0 -0 -0 -0 -0 -0 -0 -0 -0 -0 -0 -0 -0 -0 -0 -0 -0 -0 -0
-0 -1 -0 -0 -0 -0 -0 -0 -0 -0 -0 -0 -1 -0 -0 -0 -0 -1 -0 -1 -1 -0 -0 -0 -3 -2 -3 -0 -0 -0 -0 -0 -0 -0 -0 -0 -0 -0 -0 -0 -0 -0 -0 -0 -0 -0 -0
-1 -0 -0 -0 -0 -0 -0 -0 -0 -0 -0 -0 -0 -0 -3 -0 -1 -9 -0 -0 -0 -0 -0 -0 -4 -2 -2 -0 -0 -0 -0 -0 -0 -0 -0 -0 -0 -0 -0 -0 -0 -0 -0 -0 -0 -0 -0
-0 -1 -0 -0 -0 -0 -0 -1 -0 -0 -0 -1 -0 -0 -3 -0 -2 -7 -1 -1 -0 -0 -0 -0 -2 -1 -2 -0 -0 -0 -0 -0 -0 -0 -0 -0 -0 -0 -0 -0 -0 -0 -0 -0 -0 -0 -0
-0 -0 -0 -0 -0 -0 -0 -1 -1 -0 -0 -0 -0 -0 -5 -0 -0 -0 -0 -0 -0 -0 -0 -0 -0 -0 -0 -0 -0 -0 -0 -0 -0 -0 -0 -0 -0 -0 -0 -0 -0 -0 -0 -0 -0 -0 -0
-0 -0 -0 -0 -0 -0 -0 -1 -0 -0 -0 -0 -0 -0 -0 -1 -0 -0 -0 -0 -0 -0 -0 -0 -0 -0 -0 -6 -0 -0 -0 -0 -0 -0 -0 -0 -0 -0 -0 -0 -0 -0 -0 -0 -0 -0 -0
-0 -0 -0 -0 -0 -0 -1 -1 -0 -0 -0 -0 -0 -0 -0 -0 -0 -0 -0 -0 -0 -0 -0 -2 -0 -1 -0 -7 -2 -0 -0 -0 -0 -0 -0 -0 -0 -0 -0 -0 -0 -0 -0 -0 -0 -0 -0
-0 -0 -0 -0 -0 -1 -0 -1 -1 -0 -0 -1 -0 -0 -0 -0 -0 -0 -1 -0 -0 -0 -0 -19 -0 -0 -0 -0 -3 -0 -0 -0 -0 -0 -0 -0 -0 -0 -0 -0 -0 -0 -0 -0 -0 -0 -0
-1 -1 -0 -0 -0 -0 -0 -1 -0 -0 -0 -0 -0 -0 -0 -0 -0 -0 -0 -0 -0 -1 -19 -39 -0 -1 -0 -0 -2 -0 -0 -0 -0 -0 -0 -0 -0 -0 -0 -0 -0 -0 -0 -0 -0 -0 -0
-0 -0 -0 -1 -0 -1 -1 -0 -1 -0 -0 -0 -0 -0 -0 -0 -0 -0 -0 -0 -0 -0 -29 -0 -0 -7 -8 -0 -6 -4 -2 -0 -0 -0 -0 -0 -0 -0 -0 -0 -0 -0 -0 -0 -0 -0 -0
-0 -0 -0 -1 -1 -1 -0 -0 -0 -0 -1 -1 -0 -1 -0 -0 -0 -0 -0 -1 -0 -0 -0 -0 -0 -0 -0 -12 -14 -39 -24 -21 -43 -0 -0 -0 -0 -0 -0 -0 -0 -0 -0 -0 -0 -0 -0
-0 -0 -1 -1 -1 -0 -0 -0 -1 -0 -0 -1 -2 -2 -4 -0 -2 -2 -2 -1 -0 -0 -0 -0 -0 -0 -8 -3 -3 -5 -4 -2 -5 -24 -0 -0 -0 -0 -0 -54 -54 -48 -0 -0 -0 -0 -0
-0 -0 -1 -0 -1 -0 -0 -0 -0 -0 -3 -1 -2 -8 -16 -0 -5 -0 -0 -1 -1 -0 -0 -0 -0 -0 -1 -2 -0 -10 -5 -2 -2 -16 -10 -36 -51 -82 -8 -20 -25 -0 -0 -0 -0 -0 -0
-3 -1 -0 -0 -0 -0 -0 -0 -2 -0 -0 -0 -0 -14 -0 -0 -0 -0 -0 -0 -0 -0 -1 -0 -0 -0 -1 -1 -5 -1 -2 -1 -2 -4 -27 -32 -39 -26 -13 -2 -13 -0 -0 -0 -0 -0 -0
-1 -0 -0 -0 -0 -0 -0 -0 -0 -0 -0 -1 -0 -0 -1 -0 -0 -0 -0 -0 -0 -0 -0 -0 -0 -0 -0 -0 -1 -4 -4 -3 -3 -1 -1 -3 -13 -24 -1 -7 -2 -0 -0 -0 -0 -0 -0
-1 -0 -0 -0 -0 -0 -1 -13 -0 -0 -0 -0 -0 -0 -0 -0 -0 -0 -0 -0 -0 -0 -0 -0 -2 -0 -0 -0 -0 -0 -0 -0 -0 -2 -1 -0 -1 -1 -0 -0 -0 -0 -0 -0 -13 -55 -0
Wind_Speed
39 39 38 41 41 41 41 43 43 42 42 42 42 42 42 42 41 38 37 37 34 34 32 32 31 29 28 31 29 18 21 20 20 19 20 21 22 22 23 21 19 21 20 17 21 25 28
38 39 39 39 39 39 40 42 44 45 43 42 43 42 42 42 42 40 39 36 34 33 32 32 31 30 32 42 25 24 23 21 20 20 20 20 22 21 22 23 24 18 19 21 26 28 28
39 40 41 40 41 42 43 42 42 44 45 44 43 43 42 41 41 41 39 37 36 33 32 31 30 31 39 43 24 23 24 22 22 22 22 20 20 21 20 23 20 21 25 30 32 29 29
38 40 41 42 42 43 44 44 44 44 44 45 43 42 42 40 40 40 40 38 38 33 30 29 29 33 45 31 36 35 32 31 24 22 22 20 20 23 22 19 20 22 27 31 21 21 22
37 38 40 42 43 44 44 45 47 46 45 45 45 43 41 40 38 38 38 38 37 33 28 27 32 36 48 28 39 39 32 29 24 22 21 20 22 25 23 26 27 27 34 28 28 25 25
41 39 40 43 44 45 45 46 47 48 46 45 46 45 42 40 38 36 35 36 35 27 27 27 33 37 45 40 37 31 31 30 26 24 24 24 25 28 29 27 32 34 33 32 31 24 23
39 39 43 45 46 46 47 47 46 46 48 48 46 46 44 41 38 35 32 32 36 38 42 48 44 44 29 35 27 31 29 30 31 31 34 29 32 34 31 31 36 33 33 36 35 27 32
37 40 42 45 48 47 48 48 48 48 49 49 49 48 43 41 37 33 34 42 42 30 47 50 44 47 43 27 35 35 27 34 36 41 34 33 43 36 32 32 34 35 38 41 40 36 34
36 40 43 45 47 47 47 48 49 50 51 51 47 46 40 38 35 35 42 51 37 32 44 50 54 50 42 43 38 36 32 36 39 43 41 45 35 35 34 33 34 36 38 39 41 40 41
35 41 44 45 46 46 46 47 48 46 49 49 43 43 33 31 37 38 49 42 38 32 49 51 55 52 49 36 52 37 34 33 38 47 42 47 49 36 35 40 34 40 33 39 40 39 39
32 41 43 43 44 44 44 44 43 48 49 47 38 39 31 30 33 43 34 36 31 32 61 43 51 37 44 52 37 49 35 36 43 39 42 44 39 41 41 37 32 38 29 32 34 38 42
32 40 41 41 42 42 42 42 43 46 42 32 32 34 29 33 38 41 35 21 26 56 65 44 39 50 51 57 53 33 45 39 38 40 42 49 35 38 47 38 32 25 25 27 29 35 46
31 39 38 39 40 40 40 40 41 42 35 30 29 29 31 32 43 30 29 31 51 73 46 43 48 49 56 58 58 51 48 53 48 47 50 45 44 35 31 32 29 28 27 33 37 37 46
16 37 36 35 36 37 38 39 40 39 35 28 30 27 32 37 35 30 30 46 64 66 61 37 45 51 61 54 59 57 53 56 56 51 47 48 48 42 34 34 34 32 29 34 40 42 43
30 34 34 35 36 37 38 39 39 38 38 19 22 27 34 40 34 33 40 62 67 49 58 45 46 56 62 55 52 55 59 62 57 53 54 48 55 34 35 34 28 33 40 32 41 39 42
22 34 34 36 36 37 38 38 37 37 39 17 18 26 36 35 33 34 49 63 51 58 40 59 53 55 64 61 56 58 62 62 60 56 48 40 46 38 34 32 37 34 29 35 33 43 46
16 35 35 36 36 36 37 34 34 32 28 14 16 29 32 30 32 40 55 57 60 48 57 46 55 51 59 61 59 61 59 52 60 54 50 46 45 37 31 43 39 35 35 34 33 39 45
18 35 36 36 35 36 35 33 31 29 24 11 19 24 24 33 36 41 51 46 44 56 55 53 44 52 55 56 61 58 61 59 49 50 56 52 45 48 44 34 37 38 40 37 39 40 39
18 11 36 37 36 36 35 33 30 27 22 21 17 21 27 28 39 37 41 40 47 56 53 54 49 48 45 55 59 55 59 53 42 50 51 47 51 54 48 42 40 47 44 38 41 35 42
19 14 33 37 37 34 34 34 32 29 26 19 21 17 24 31 38 36 35 49 59 50 56 54 43 47 53 52 53 56 56 46 44 47 42 41 50 56 59 57 43 47 47 44 41 44 49
20 17 12 36 38 37 35 34 35 33 30 21 24 24 25 34 38 40 41 42 52 55 56 54 55 58 55 52 55 52 51 45 45 45 41 39 50 50 56 49 38 45 45 43 45 45 47
20 18 12 29 37 38 37 37 37 37 36 30 30 24 22 19 29 32 41 49 58 60 53 58 60 53 62 54 53 52 49 47 46 42 46 42 46 45 52 49 45 45 42 42 43 46 45
20 18 15 14 36 38 38 37 38 40 37 27 32 30 24 22 20 24 36 51 60 62 59 60 60 54 59 59 45 45 39 40 37 41 46 44 43 42 54 44 44 50 46 44 42 43 43
20 19 17 14 32 37 38 37 39 43 20 23 30 29 27 23 29 26 31 41 56 61 66 60 56 58 53 49 29 31 36 37 39 40 42 45 44 38 47 37 53 47 45 45 46 43 41
20 19 18 17 11 33 36 36 36 32 16 7 23 29 30 30 29 31 39 42 47 51 63 64 60 50 32 38 41 40 40 36 38 40 42 44 45 45 49 51 42 40 39 38 41 48 42
20 19 19 18 15 16 33 32 29 25 19 2 15 17 24 30 38 34 36 37 50 50 59 64 52 55 40 41 37 45 45 43 41 37 34 39 43 48 43 54 60 55 41 34 38 59 45
20 19 19 20 18 14 31 28 27 23 19 15 14 15 22 37 35 31 39 41 44 39 47 47 45 44 42 43 45 46 49 40 47 47 42 41 41 51 52 52 48 45 37 28 45 52 32
19 21 23 23 21 18 22 28 24 23 20 18 18 22 26 34 36 32 33 33 39 39 40 35 35 38 42 41 43 42 43 41 40 38 40 45 44 46 46 49 57 39 34 45 42 37 33
26 27 27 27 24 21 18 29 23 21 17 17 22 21 20 27 27 26 30 30 29 34 40 35 34 34 34 39 35 35 36 37 44 47 36 46 43 46 41 45 36 32 36 32 33 34 33
Wind_Direction
308 305 302 294 290 287 282 279 275 272 269 268 266 264 261 261 261 262 265 258 260 261 262 263 267 271 272 261 260 288 288 289 284 279 273 271 269 270 269 275 278 279 287 296 289 287 283
310 304 300 298 292 290 286 282 277 270 269 267 266 264 262 260 260 261 262 260 258 259 260 262 264 267 260 253 271 274 284 282 280 279 274 272 274 273 275 273 274 287 289 288 281 280 281
311 307 300 295 294 289 286 283 281 274 268 266 265 264 262 260 259 259 259 261 257 257 258 259 262 263 255 250 269 272 274 277 278 276 272 275 274 270 272 274 282 285 284 274 272 278 279
313 309 302 296 294 290 286 282 280 277 270 266 265 263 261 260 259 259 258 259 257 254 256 257 259 260 253 261 259 262 263 265 272 274 272 274 273 270 270 279 282 282 273 268 280 281 285
318 312 301 294 293 291 288 283 278 274 272 266 264 262 260 259 258 259 259 257 259 252 253 255 255 255 253 260 253 254 259 260 266 269 270 271 268 265 267 265 270 268 262 267 275 279 282
314 312 305 296 291 284 286 284 279 271 269 268 262 261 259 258 256 257 259 257 260 249 247 254 255 252 252 250 252 254 254 252 257 260 261 260 262 259 258 256 258 262 261 264 271 284 284
321 315 307 296 292 286 284 281 279 273 268 266 264 259 257 255 253 253 254 253 247 245 239 239 243 243 259 251 253 250 247 245 248 252 250 253 253 251 254 256 258 265 265 265 268 283 283
325 318 311 301 293 289 285 280 274 270 267 265 262 261 254 252 250 248 248 243 243 257 246 242 245 242 247 257 248 245 244 238 239 243 247 252 250 253 258 259 260 263 265 264 268 277 281
330 322 311 302 295 291 286 282 277 267 260 262 261 259 251 249 246 244 243 242 246 261 253 246 239 240 243 245 247 242 237 237 240 242 243 246 257 252 255 257 260 262 264 266 267 276 281
335 324 309 300 299 294 288 286 280 277 269 264 260 256 246 243 242 241 243 244 245 259 252 249 235 243 236 240 243 243 238 238 244 242 243 250 248 254 252 255 258 262 268 269 271 275 279
340 324 308 301 302 298 292 289 286 281 271 264 255 251 239 229 242 234 245 239 243 248 246 245 234 241 230 233 242 236 237 239 242 243 236 246 249 246 251 255 259 265 270 272 272 273 276
345 321 306 302 301 300 297 293 290 289 276 267 251 247 233 233 239 242 236 238 234 234 241 246 228 227 225 229 234 241 229 239 244 243 243 246 256 251 252 256 255 266 268 273 277 277 272
348 309 303 303 302 299 297 295 295 295 279 266 250 240 227 229 233 230 229 229 232 231 239 244 230 225 225 228 228 231 228 227 231 234 238 243 247 254 253 249 251 248 255 267 269 269 271
350 304 303 301 300 299 299 301 299 298 286 265 253 235 229 229 230 223 222 228 233 230 231 246 237 230 230 225 229 227 230 230 232 236 242 241 245 242 243 245 253 242 245 261 268 269 274
352 295 299 301 304 304 306 309 309 302 290 253 246 236 232 229 223 221 226 230 230 232 232 238 235 229 230 227 231 225 228 230 230 230 236 240 247 251 246 244 243 248 249 264 272 274 275
0 301 299 304 305 307 311 316 309 304 290 214 217 234 232 223 216 217 228 232 234 234 237 230 235 230 229 224 227 223 226 231 231 231 233 244 249 249 245 244 249 250 254 257 261 267 269
2 303 303 305 307 308 312 306 310 311 314 187 222 239 235 208 209 224 230 233 233 234 232 237 235 236 234 227 228 225 229 235 228 230 231 238 245 251 243 242 242 242 248 257 264 265 269
4 304 305 306 305 307 306 305 308 308 304 224 236 243 235 200 213 227 229 230 234 232 231 233 245 241 235 231 230 230 233 231 228 227 227 233 245 246 246 256 250 246 250 246 259 263 266
5 317 303 307 305 305 306 302 300 300 293 270 241 252 233 214 223 228 230 229 234 231 231 232 240 240 241 233 231 233 235 235 235 225 230 229 242 245 248 254 255 248 247 254 255 269 263
7 358 297 305 306 302 299 300 294 291 281 277 240 237 232 227 234 234 231 231 234 234 234 231 241 242 240 237 231 234 236 238 236 226 234 229 243 241 244 250 257 252 252 250 255 257 263
8 3 306 300 305 303 299 294 293 285 271 266 248 252 241 235 233 233 237 236 233 233 233 234 239 241 239 236 229 237 232 233 233 230 231 233 241 243 247 250 257 254 252 250 248 253 258
8 3 346 291 301 303 299 297 288 284 268 255 248 252 239 244 232 234 239 240 235 232 234 233 234 240 235 239 229 232 230 231 233 231 227 233 248 244 249 249 254 257 255 253 252 254 261
8 2 354 301 303 305 303 297 289 283 266 251 243 246 236 237 228 233 242 241 237 234 238 236 232 237 235 234 242 238 240 238 241 230 227 233 244 244 249 251 250 254 254 255 260 257 261
6 4 358 350 301 307 307 304 305 305 266 248 236 235 242 246 238 243 255 248 242 238 236 232 231 233 240 231 241 240 243 241 240 235 229 233 239 249 254 249 251 259 258 259 262 264 264
5 5 4 5 349 306 311 312 318 327 322 203 226 235 242 248 247 256 257 256 249 245 234 228 227 227 233 223 232 235 237 240 239 237 234 237 237 249 249 249 261 259 259 260 264 267 270
7 6 8 11 15 299 313 316 312 311 292 21 243 242 244 246 246 257 257 262 246 242 231 225 230 226 228 227 225 230 230 233 236 236 240 241 240 244 251 253 255 259 263 272 275 273 275
9 7 12 19 24 28 316 313 315 297 275 274 258 252 253 235 250 258 252 259 253 237 229 226 220 216 224 224 228 231 236 240 239 236 238 241 243 243 250 257 262 265 268 274 265 277 292
8 16 19 25 30 35 5 319 315 316 286 275 269 262 259 247 246 256 264 260 236 226 221 214 210 221 221 224 229 233 240 239 245 242 239 242 244 250 251 254 261 267 267 262 279 283 282
19 20 23 26 30 37 41 327 319 318 310 288 274 274 270 253 259 271 250 261 255 233 221 218 225 221 228 227 237 239 244 243 244 245 251 249 249 252 256 261 267 274 275 275 274 281 284